Regional Weather Roundup
Issued by NWS

Home | Current Version | Previous Version | Text Only | Print | Product List | Glossary Off
Versions: 1 2 3 4 5 6 7 8 9 10 11 12 13 14 15 16 17 18 19 20 21 22 23 24 25 26 27 28 29 30 31 32 33 34 35 36 37 38 39 40 41 42 43 44 45 46 47 48 49 50

000
ASUS43 KMPX 282010
RWRMN
WEATHER ROUNDUP FOR MINNESOTA
NATIONAL WEATHER SERVICE TWIN CITIES/CHANHASSEN MN
200 PM CST SAT FEB 28 2015


NOTE: "FAIR" INDICATES FEW OR NO CLOUDS BELOW 12,000 FEET WITH NO
SIGNIFICANT WEATHER AND/OR OBSTRUCTIONS TO VISIBILITY. N/A MEANS
CURRENT SKY AND/OR WEATHER CONDITIONS ARE NOT AVAILABLE.

MNZ060>063-068>070-282100-
   Twin Cities Metro

CITY           SKY/WX    TMP DP  RH WIND       PRES   REMARKS
TWIN CITIES    SUNNY     20   3  48 SE16      30.43F WCI   6
ST PAUL        SUNNY     21   4  47 S14G23    30.45F WCI   8
CRYSTAL        SUNNY     22   4  46 S13G22    30.40F WCI  10
BLAINE         SUNNY     25   3  39 S15       30.40  WCI  12
LAKEVILLE      SUNNY     16   5  62 S15       30.42F WCI   1
EDEN PRAIRIE   SUNNY     21   4  47 S17       30.41F WCI   7
SOUTH ST PAUL  SUNNY     20   6  53 S14       30.44F WCI   7
LAKE ELMO      FAIR      21   9  58 S17       30.44F WCI   7
$$
MNZ001>005-007-008-013>017-022>024-027-028-282100-
   Northwest Minnesota

CITY           SKY/WX    TMP DP  RH WIND       PRES   REMARKS
BEMIDJI        MOSUNNY   24   4  43 S15G21    30.16F WCI  11
HALLOCK        PTSUNNY   19  10  68 S21       30.11F WCI   3
ROSEAU         PTSUNNY   21  10  63 S14       30.12F WCI   8
WARROAD        PTSUNNY   21   9  58 SW10      30.13F WCI  10
THIEF RVR FALL CLOUDY    21  12  68 S20       30.13F WCI   6
CROOKSTON      MOSUNNY   23  16  74 S22       30.16F WCI   8
FOSSTON        MOSUNNY   25  12  58 S24       30.14F WCI   9
DETROIT LAKES  MOSUNNY   25  12  58 S17G23    30.18F WCI  11
MOORHEAD       PTSUNNY   27  12  54 S20G25    30.18F WCI  13
PARK RAPIDS    PTSUNNY   23   4  44 S22G33    30.20F WCI   8
MAHNOMEN       CLOUDY    24  13  63 S24G32    30.15F WCI   8
$$
MNZ006-009>011-018-025>026-282100-
   North Central Minnesota

CITY           SKY/WX    TMP DP  RH WIND       PRES   REMARKS
BAUDETTE       PTSUNNY   21   5  50 S14       30.14F WCI   8
FLAG ISLAND    PTSUNNY   16   7  67 S9        30.12F WCI   4
INTL FALLS     MOSUNNY   25   1  35 SW16G25   30.17  WCI  12
WASKISH        FAIR      27   5  39 S6G18     30.17F WCI  20
BIG FORK       SUNNY     25   1  36 S17       30.21F WCI  11
LONGVILLE      SUNNY     25   1  36 S12G17    30.24F WCI  14
GRAND RAPIDS   SUNNY     21   1  42 S14G28    30.23F WCI   8
CRANE LAKE     MOSUNNY   25  -4  28 SW9G21    30.25F WCI  15
ORR            MOSUNNY   25  -6  26 SW10G21   30.21F WCI  15
COOK           MOSUNNY   21   0  39 S14G24    30.24F WCI   8
WALKER         CLOUDY    22   2  41 S15G23    30.20F WCI   9
$$
MNZ012-019>021-037-282100-
   Northeast Minnesota

CITY           SKY/WX    TMP DP  RH WIND       PRES   REMARKS
DULUTH         SUNNY     20   1  43 SW18G25   30.30  WCI   5
ELY            MOSUNNY   21   0  39 SW13G20   30.25F WCI   9
HIBBING        SUNNY     22  -2  35 SW14G23   30.25F WCI   9
EVELETH        SUNNY     21   3  45 S16       30.27F WCI   7
DULUTH HARBOR  SUNNY     23   3  42 S16G23    30.38F WCI  10
TWO HARBORS    MOSUNNY   21   9  58 S18       30.32F WCI   6
SILVER BAY     MOSUNNY   21   5  49 S12G22    30.31F WCI   9
GRAND MARAIS     N/A     20  12  71 SW24G30   30.37F WCI   3
G MARAIS ARPRT LGT SNOW  14   7  73 S12G18    30.27S WCI   0
$$
MNZ029>031-032-039>041-046>048-054>057-064-282100-
   West Central Minnesota

CITY           SKY/WX    TMP DP  RH WIND       PRES   REMARKS
FERGUS FALLS   SUNNY     25  10  54 S22G30    30.25F WCI  10
WHEATON        MOSUNNY   21  10  63 S20G28    30.24F WCI   6
MORRIS         MOSUNNY   23  10  58 S23G31    30.25F WCI   7
ALEXANDRIA     CLOUDY    21   9  59 S20       30.25F WCI   6
ELBOW LAKE     PTSUNNY   23  13  67 S25       30.22F WCI   6
WADENA         SUNNY     19   9  63 S16       30.23F WCI   5
APPLETON       MOSUNNY   27  10  50 S20       30.27F WCI  13
BENSON         CLOUDY    23  10  58 SW14G25   30.28F WCI  11
ORTONVILLE     CLOUDY    23  10  58 S10G21    30.24F WCI  12
MADISON        PTSUNNY   25  12  58 S20G25    30.28F WCI  11
WILLMAR        FAIR      23  10  58 S8G17     30.33F WCI  14
$$
MNZ033>034-036-042>043-049>051-058-059-282100-
   Central Minnesota

CITY           SKY/WX    TMP DP  RH WIND       PRES   REMARKS
ST CLOUD       SUNNY     21   4  47 S20G31    30.35F WCI   6
SAUK CENTRE    FAIR      21   8  55 S18       30.29F WCI   7
PAYNESVILLE    PTSUNNY   19   6  57 SE17G29   30.32F WCI   4
AITKIN         SUNNY     25   3  39 S14       30.28F WCI  13
PINE RIVER     SUNNY     21   5  49 S16G23    30.28F WCI   7
BRAINERD       SUNNY     20   3  48 SW23G30   30.29F WCI   3
STAPLES        PTSUNNY   21   3  45 S20G25    30.26F WCI   6
LONG PRAIRIE   FAIR      23   9  54 S20       30.28F WCI   8
LITTLE FALLS   SUNNY     21   3  45 S15G24    30.32F WCI   8
LITCHFIELD     PTSUNNY   21   9  58 S7        30.34F WCI  13
BUFFALO        SUNNY     21   3  45 S16G22    30.40F WCI   7
MAPLE LAKE     SUNNY     22   7  52 S14G23    30.38F WCI  10
$$
MNZ037-044-045-052-053-282100-
   East Central Minnesota

CITY           SKY/WX    TMP DP  RH WIND       PRES   REMARKS
PRINCETON      SUNNY     21   3  45 S13G20    30.36F WCI   9
MORA           SUNNY     21   5  49 S15       30.38F WCI   8
CAMBRIDGE      SUNNY     21   7  53 S14       30.38F WCI   8
RUSH CITY      SUNNY     21   5  49 S12       30.40F WCI   9
MOOSE LAKE     SUNNY     23   5  46 S12G18    30.33F WCI  12
HINCKLEY       FAIR      21   5  49 S16       30.38F WCI   7
CLOQUET        SUNNY     19   0  42 S15       30.31F WCI   5
MCGREGOR       SUNNY     23   5  46 S16G23    30.31F WCI  10
$$
MNZ071>073-080-081-089-090-097-098-282100-
   Southwest Minnesota

CITY           SKY/WX    TMP DP  RH WIND       PRES   REMARKS
MONTEVIDEO     PTSUNNY   25  12  58 SW16G24   30.30F WCI  12
GRANITE FALLS  SUNNY     23  12  63 S22       30.32F WCI   8
CANBY          CLOUDY    22  12  64 S15G22    30.28F WCI   9
MARSHALL       MOSUNNY   21  10  63 S20G26    30.31F WCI   6
REDWOOD FALLS  SUNNY     21   9  59 S21       30.34F WCI   5
OLIVIA         SUNNY     21  10  63 S17G23    30.33F WCI   7
PIPESTONE      CLOUDY    19  12  73 S23       30.24F WCI   2
WINDOM         SUNNY     19   9  63 S14G23    30.32F WCI   6
WORTHINGTON    SUNNY     28   7  40 S20G28    30.31F WCI  15
JACKSON        MOSUNNY   21  10  63 S18G24    30.34F WCI   6
TRACY          SUNNY     23  12  62 S17G23    30.28F WCI   9
SLAYTON        MOSUNNY   20  10  64 S21G28    30.27F WCI   4
$$
MNZ065>067-074>077-082>085-091>093-282100-
   South Central Minnesota

CITY           SKY/WX    TMP DP  RH WIND       PRES   REMARKS
MANKATO        PTSUNNY   18   1  49 S15G23    30.40F WCI   3
NEW ULM        MOSUNNY   18   9  68 S20       30.37F WCI   1
ST JAMES       MOSUNNY   19  10  68 S14G23    30.38F WCI   6
FAIRMONT       CLOUDY    18   5  57 S18       30.36F WCI   2
GLENCOE        SUNNY     22  10  60 S14G20    30.39F WCI  10
FARIBAULT      SUNNY     16   5  62 S13       30.43F WCI   2
OWATONNA       SUNNY     14   3  62 S14       30.43F WCI  -1
WASECA         SUNNY     18   7  62 S14       30.44F WCI   4
ALBERT LEA     SUNNY     14   3  62 S15       30.42F WCI  -1
$$
MNZ078>079-086>088-094>096-282100-
   Southeast Minnesota

CITY           SKY/WX    TMP DP  RH WIND       PRES   REMARKS
ROCHESTER      SUNNY     10   1  67 S15       30.45F WCI  -7
RED WING       SUNNY     19   1  45 S12       30.47F WCI   7
STANTON        SUNNY     17   6  60 S13G18    30.43F WCI   4
DODGE CENTER   SUNNY     12   3  67 S16       30.43F WCI  -4
WINONA         SUNNY     19   3  49 S6        30.53F WCI  11
AUSTIN         SUNNY     10   1  67 S13       30.45F WCI  -5
PRESTON        SUNNY     11  -1  58 S10       30.47F WCI  -2
$$
ABBREVIATIONS USED IN REMARKS
   TC - TEMPERATURES IN CELSIUS
  WCI - WIND CHILL INDEX
   HX - HEAT INDEX
  VSB - VISIBILITY
$$


USA.gov is the U.S. government's official web portal to all federal, state and local government web resources and services.